TimeMST,TemperatureF,Dew PointF,Humidity,Sea Level PressureIn,VisibilityMPH,Wind Direction,Wind SpeedMPH,Gust SpeedMPH,PrecipitationIn,Events,Conditions,WindDirDegrees,DateUTC
12:15 AM,41.0,23.0,49,29.88,10.0,Calm,Calm,-,N/A,,Clear,0,2012-12-08 07:15:00
12:35 AM,46.4,24.8,43,29.88,10.0,West,9.2,-,N/A,,Clear,270,2012-12-08 07:35:00
12:55 AM,46.4,24.8,43,29.87,10.0,WNW,8.1,-,N/A,,Clear,300,2012-12-08 07:55:00
1:15 AM,48.2,26.6,43,29.88,10.0,North,9.2,-,N/A,,Clear,350,2012-12-08 08:15:00
1:55 AM,39.2,23.0,52,29.88,10.0,North,12.7,-,N/A,,Clear,360,2012-12-08 08:55:00
2:15 AM,39.2,23.0,52,29.90,10.0,North,5.8,-,N/A,,Clear,350,2012-12-08 09:15:00
2:35 AM,39.2,23.0,52,29.90,10.0,North,5.8,-,N/A,,Clear,350,2012-12-08 09:35:00
2:55 AM,39.2,23.0,52,29.89,10.0,NNW,6.9,-,N/A,,Clear,330,2012-12-08 09:55:00
3:15 AM,35.6,23.0,60,29.90,10.0,North,6.9,-,N/A,,Clear,350,2012-12-08 10:15:00
3:35 AM,37.4,23.0,56,29.90,10.0,North,4.6,-,N/A,,Clear,350,2012-12-08 10:35:00
4:15 AM,37.4,23.0,56,29.90,10.0,WNW,5.8,-,N/A,,Clear,300,2012-12-08 11:15:00
4:35 AM,37.4,23.0,56,29.90,10.0,WNW,3.5,-,N/A,,Clear,300,2012-12-08 11:35:00
4:55 AM,35.6,21.2,56,29.90,10.0,WNW,5.8,-,N/A,,Clear,290,2012-12-08 11:55:00
5:15 AM,35.6,19.4,52,29.91,10.0,WNW,3.5,-,N/A,,Clear,300,2012-12-08 12:15:00
5:35 AM,35.6,19.4,52,29.92,10.0,West,4.6,-,N/A,,Clear,270,2012-12-08 12:35:00
5:55 AM,35.6,19.4,52,29.92,10.0,WNW,8.1,-,N/A,,Clear,300,2012-12-08 12:55:00
6:15 AM,33.8,19.4,56,29.93,10.0,NW,8.1,-,N/A,,Clear,310,2012-12-08 13:15:00
6:35 AM,35.6,19.4,52,29.94,10.0,NW,9.2,-,N/A,,Clear,320,2012-12-08 13:35:00
6:55 AM,37.4,21.2,52,29.94,10.0,NW,10.4,-,N/A,,Clear,310,2012-12-08 13:55:00
7:15 AM,35.6,21.2,56,29.94,10.0,NW,8.1,-,N/A,,Clear,310,2012-12-08 14:15:00
7:35 AM,39.2,23.0,52,29.94,10.0,WNW,6.9,-,N/A,,Clear,290,2012-12-08 14:35:00
7:55 AM,42.8,23.0,46,29.93,10.0,NW,5.8,-,N/A,,Clear,310,2012-12-08 14:55:00
8:15 AM,44.6,23.0,43,29.94,10.0,NW,4.6,-,N/A,,Clear,320,2012-12-08 15:15:00
8:35 AM,46.4,24.8,43,29.94,10.0,NNW,4.6,-,N/A,,Clear,330,2012-12-08 15:35:00
8:55 AM,48.2,23.0,37,29.94,10.0,North,5.8,-,N/A,,Clear,360,2012-12-08 15:55:00
9:15 AM,48.2,24.8,40,29.94,10.0,NNE,5.8,-,N/A,,Clear,20,2012-12-08 16:15:00
9:35 AM,48.2,24.8,40,29.94,10.0,NNE,6.9,-,N/A,,Clear,20,2012-12-08 16:35:00
9:55 AM,50.0,24.8,37,29.94,10.0,North,3.5,-,N/A,,Clear,360,2012-12-08 16:55:00
10:15 AM,51.8,24.8,35,29.93,10.0,Calm,Calm,-,N/A,,Clear,0,2012-12-08 17:15:00
10:35 AM,53.6,24.8,33,29.92,10.0,NE,3.5,-,N/A,,Clear,40,2012-12-08 17:35:00
10:55 AM,53.6,26.6,35,29.91,10.0,SSE,3.5,-,N/A,,Clear,150,2012-12-08 17:55:00
11:15 AM,55.4,26.6,33,29.89,10.0,NE,3.5,-,N/A,,Clear,50,2012-12-08 18:15:00
11:35 AM,57.2,26.6,31,29.88,10.0,Calm,Calm,-,N/A,,Clear,0,2012-12-08 18:35:00
11:55 AM,59.0,26.6,29,29.86,10.0,East,4.6,-,N/A,,Clear,80,2012-12-08 18:55:00
12:15 PM,59.0,26.6,29,29.84,10.0,Calm,Calm,-,N/A,,Clear,0,2012-12-08 19:15:00
12:35 PM,62.6,26.6,26,29.84,10.0,NE,3.5,-,N/A,,Clear,50,2012-12-08 19:35:00
12:55 PM,64.4,26.6,24,29.82,10.0,ENE,5.8,-,N/A,,Clear,60,2012-12-08 19:55:00
1:15 PM,64.4,26.6,24,29.80,10.0,East,6.9,-,N/A,,Clear,80,2012-12-08 20:15:00
1:35 PM,66.2,26.6,23,29.79,10.0,East,5.8,-,N/A,,Clear,100,2012-12-08 20:35:00
1:55 PM,69.8,23.0,17,29.78,10.0,South,4.6,-,N/A,,Clear,190,2012-12-08 20:55:00
2:15 PM,71.6,21.2,15,29.77,10.0,WSW,19.6,23.0,N/A,,Clear,240,2012-12-08 21:15:00
2:35 PM,71.6,19.4,14,29.76,10.0,WSW,19.6,28.8,N/A,,Clear,250,2012-12-08 21:35:00
2:55 PM,71.6,23.0,16,29.76,10.0,WSW,21.9,27.6,N/A,,Clear,240,2012-12-08 21:55:00
3:15 PM,69.8,21.2,16,29.76,10.0,SW,23.0,28.8,N/A,,Clear,230,2012-12-08 22:15:00
3:35 PM,69.8,19.4,15,29.76,10.0,SW,23.0,27.6,N/A,,Clear,230,2012-12-08 22:35:00
3:55 PM,68.0,19.4,16,29.76,10.0,WSW,20.7,26.5,N/A,,Clear,240,2012-12-08 22:55:00
4:15 PM,68.0,19.4,16,29.77,10.0,WSW,18.4,26.5,N/A,,Clear,250,2012-12-08 23:15:00
4:35 PM,66.2,19.4,17,29.77,10.0,SW,20.7,32.2,N/A,,Clear,230,2012-12-08 23:35:00
4:55 PM,64.4,21.2,19,29.78,10.0,WSW,19.6,25.3,N/A,,Clear,250,2012-12-08 23:55:00
5:15 PM,62.6,21.2,20,29.79,10.0,WSW,19.6,23.0,N/A,,Clear,250,2012-12-09 00:15:00
5:35 PM,62.6,21.2,20,29.80,10.0,WSW,18.4,-,N/A,,Clear,250,2012-12-09 00:35:00
6:15 PM,59.0,24.8,27,29.81,10.0,West,16.1,-,N/A,,Clear,260,2012-12-09 01:15:00
6:35 PM,59.0,24.8,27,29.82,10.0,West,12.7,-,N/A,,Clear,260,2012-12-09 01:35:00
6:55 PM,55.4,24.8,31,29.82,10.0,SW,10.4,-,N/A,,Clear,230,2012-12-09 01:55:00
7:15 PM,53.6,23.0,30,29.83,10.0,SW,12.7,-,N/A,,Clear,220,2012-12-09 02:15:00
7:35 PM,53.6,24.8,33,29.83,10.0,SW,12.7,-,N/A,,Clear,230,2012-12-09 02:35:00
8:15 PM,53.6,24.8,33,29.83,10.0,SW,11.5,-,N/A,,Clear,230,2012-12-09 03:15:00
8:35 PM,55.4,24.8,31,29.83,10.0,WSW,12.7,-,N/A,,Clear,250,2012-12-09 03:35:00
8:55 PM,53.6,24.8,33,29.84,10.0,WSW,12.7,-,N/A,,Clear,250,2012-12-09 03:55:00
9:15 PM,53.6,23.0,30,29.84,10.0,WSW,11.5,-,N/A,,Clear,250,2012-12-09 04:15:00
9:35 PM,53.6,23.0,30,29.84,10.0,WSW,12.7,-,N/A,,Clear,250,2012-12-09 04:35:00
9:55 PM,55.4,23.0,29,29.83,10.0,West,18.4,-,N/A,,Clear,260,2012-12-09 04:55:00
10:15 PM,55.4,21.2,26,29.84,10.0,WSW,15.0,-,N/A,,Clear,250,2012-12-09 05:15:00
10:35 PM,53.6,21.2,28,29.84,10.0,WSW,13.8,-,N/A,,Clear,250,2012-12-09 05:35:00
10:55 PM,51.8,21.2,30,29.84,10.0,West,8.1,-,N/A,,Clear,260,2012-12-09 05:55:00
11:15 PM,50.0,19.4,30,29.84,10.0,West,6.9,-,N/A,,Clear,260,2012-12-09 06:15:00
11:35 PM,50.0,19.4,30,29.83,10.0,West,12.7,-,N/A,,Clear,260,2012-12-09 06:35:00